Location: Saint Louis
(38.6272°N, 90.1978°W)
Time: 10:21:17
(UTC-06:00)

Hubble Space Telescope - Visible Passes

Search period start: 29 January 2015 00:00
Search period end: 08 February 2015 00:00
Orbit: 544 x 548 km, 28.5° (Epoch: 28 January)

Date Brightness Start Highest point End Pass type
(mag) Time Alt. Az. Time Alt. Az. Time Alt. Az.
29 Jan 2.8 18:50:54 10° SSW 18:53:29 16° S 18:54:34 15° SSE visible
30 Jan 2.8 18:42:33 10° SW 18:45:23 18° S 18:47:07 14° SE visible
31 Jan 2.8 18:34:19 10° SW 18:37:17 19° S 18:39:40 13° SE visible
31 Jan 3.9 20:15:08 10° SW 20:15:10 10° SW 20:15:10 10° SW visible
01 Feb 2.8 18:26:08 10° SW 18:29:12 20° S 18:32:13 10° SE visible
01 Feb 3.7 20:07:12 10° SW 20:07:43 12° SW 20:07:43 12° SW visible
02 Feb 2.8 18:17:59 10° SW 18:21:06 20° S 18:24:12 10° SE visible
02 Feb 3.5 19:59:22 10° SW 20:00:18 13° SW 20:00:18 13° SW visible
03 Feb 2.9 18:09:54 10° SW 18:12:59 20° S 18:16:04 10° SE visible
03 Feb 3.5 19:51:41 10° SW 19:52:55 13° SSW 19:52:55 13° SSW visible
04 Feb 3.0 18:01:51 10° SW 18:04:53 19° S 18:07:53 10° SE visible
04 Feb 3.5 19:44:17 10° SW 19:45:34 11° SSW 19:45:36 11° SSW visible
05 Feb 3.2 17:53:52 10° SW 17:56:45 18° S 17:59:37 10° SE visible
